NIUSat (42766 NORAD) Tracking and Keplerian Element Data

This shows tracking and keplerian element data for the satellite.

Feedback or suggestion? Click here.




ElementValue
Catalog42766
NameNIUSat
Epoch Orbit5839
Epoch Day193.60341365
Epoch Year2018
RAAN252.2615
Inclination97.3992
Eccentricity0.0015283
Argument of Perigee341.2719
Mean Anonmoly18.7952
Mean Motion15.20444666
Decay Rate7.49E-06
L11 42766U 17036B 18193.60341365 .00000749 00000-0 37406-4 0 9996
L22 42766 097.3992 252.2615 0015283 341.2719 018.7952 15.20444666058390

Live tracking and technical data element details for NIUSat (NORAD 42766). NIUSat can be tracked NOW for your location showing map with azimuth and elevation plus other details from your city location.

Track the satellite on the map from your city or location and see movement details for azimuth, elevation, latitude, longitude, range, height, and movement on the map or in text.







IsCatalogInMostPopularTable: catalog: 42766, numindb: 90
Update: records affected: 1



GetName: 42766 NIUSat

Hit Count: updated at: Wed, 18 Jul 2018 20:31:26 GMT